Theta_e
334 320 326 327 325 320 324 323 306 305 310 304 304 304 304 310 310 310 311 313 310 315 320 320 320 320 318 318 321 325 326 322 320 309 305 323 342 342 342 343 345 346 347 349 350 351 351 354 354 354 354 353 353 353 353 354 353 353 353 354 353 353 351 351 350 350 349 349 347 345 344 343 342 343 344 344 343 344 347 348 348 348 348 348 347 346 347 348 348 349 348 348 348 349 350 350 351
322 316 318 330 324 321 315 319 302 300 294 292 296 303 304 310 311 310 310 311 312 317 322 320 321 322 324 327 330 329 324 328 330 328 334 341 342 341 343 345 345 345 347 348 349 350 351 353 354 354 353 353 353 353 353 353 353 353 354 353 353 353 351 351 350 350 350 349 346 345 345 344 344 343 343 343 344 346 348 347 349 348 346 347 346 347 347 347 348 349 349 348 348 349 349 350 350
319 316 316 323 319 310 308 313 299 294 292 290 293 297 302 308 309 311 312 313 318 322 323 323 327 325 323 324 322 321 318 336 335 336 336 341 336 337 343 345 346 346 347 348 348 349 350 352 354 353 352 352 352 353 353 353 353 353 353 353 353 352 352 352 351 351 351 349 347 346 345 345 345 344 343 343 343 343 346 349 348 346 346 346 347 347 347 348 348 349 348 347 347 348 349 349 349
321 318 321 319 312 308 302 296 295 294 294 292 292 296 302 307 307 311 314 318 320 322 322 319 317 324 318 313 318 326 328 330 337 336 334 337 336 341 343 345 347 347 347 348 348 349 349 353 353 353 352 352 352 353 353 353 353 354 353 353 353 352 352 352 352 352 351 349 347 346 346 344 344 344 344 344 344 343 348 349 347 345 345 346 346 347 348 348 348 348 348 347 347 348 348 348 348
319 322 318 308 305 303 299 297 293 293 292 291 293 296 300 302 302 312 315 318 320 319 316 316 315 321 322 319 330 320 324 335 337 339 338 340 343 343 344 346 346 346 346 347 348 348 349 353 353 353 352 352 352 353 353 353 353 353 353 353 353 352 352 352 352 352 351 351 348 347 345 345 344 344 344 344 345 346 347 351 349 345 345 346 346 346 346 347 347 347 346 347 347 348 347 348 348
314 315 317 314 305 303 298 295 294 292 295 295 296 298 299 301 305 314 316 317 318 315 316 316 313 316 322 328 332 330 334 326 336 338 339 337 342 344 345 346 345 344 346 347 348 348 349 353 353 353 352 352 353 353 353 353 353 353 353 353 353 352 352 352 352 352 351 351 350 349 347 345 344 344 343 345 346 349 349 349 349 348 346 346 346 346 346 346 347 345 345 346 347 347 348 348 348
308 310 310 307 306 302 292 290 291 293 297 299 297 299 300 302 314 316 315 315 315 315 321 319 326 324 321 327 331 335 338 339 337 338 341 341 343 345 345 344 344 343 345 346 348 348 350 353 353 353 353 352 353 353 353 353 353 353 353 353 353 353 352 352 352 352 351 351 349 348 348 348 348 346 345 345 346 348 348 348 347 346 346 346 346 346 346 347 346 345 345 346 347 348 347 348 349
316 305 302 299 295 297 295 291 293 293 295 301 301 301 302 305 307 314 315 313 310 315 321 321 325 322 320 331 322 333 338 341 341 342 342 342 343 344 344 343 342 342 344 346 347 348 352 353 353 353 353 353 353 353 353 353 353 353 353 353 353 352 352 352 352 351 351 349 347 347 348 347 347 347 346 345 345 346 347 347 347 347 347 346 346 346 346 347 345 345 346 347 347 347 347 348 349
307 306 309 297 296 296 292 293 294 296 298 301 302 305 315 307 306 307 313 313 314 321 321 322 325 319 322 326 324 330 337 341 342 344 342 342 342 342 342 342 341 342 344 346 348 349 350 352 353 353 352 353 353 353 353 353 353 353 353 353 353 352 352 352 352 351 350 348 347 347 347 347 347 346 346 346 346 345 346 346 347 347 347 346 346 346 346 346 346 345 347 347 347 348 347 349 349
305 305 298 297 294 293 292 293 293 295 298 301 303 303 304 306 305 310 312 314 318 322 322 326 324 319 325 322 324 329 334 341 341 340 341 341 341 341 341 342 342 342 343 345 348 348 349 352 353 353 352 352 353 353 353 353 352 352 352 352 352 352 351 351 351 351 350 349 349 347 346 346 346 345 345 346 346 346 346 347 347 347 346 346 346 345 346 346 346 346 347 347 347 348 348 348 348
299 301 300 299 295 291 292 293 296 296 299 301 303 305 305 305 305 310 320 319 323 321 324 327 323 323 324 324 323 333 340 340 339 337 340 340 340 340 340 342 343 343 343 345 346 347 349 349 353 353 353 353 353 353 352 353 353 353 352 352 352 352 351 351 351 351 350 350 349 348 346 345 345 345 345 345 344 345 346 347 346 346 346 346 346 345 346 346 347 347 347 347 347 347 348 348 348
299 298 299 293 292 291 289 292 297 297 299 301 303 305 305 307 314 317 317 318 321 323 323 326 321 327 322 322 322 334 338 338 338 339 339 340 339 340 340 341 343 343 344 345 346 345 347 349 350 352 352 353 352 352 352 352 352 352 352 352 352 351 351 350 350 350 349 349 348 347 345 345 343 344 344 344 343 343 346 346 346 346 346 346 346 346 346 346 347 347 347 347 347 347 347 347 347
299 298 295 294 290 290 291 292 296 299 299 300 303 306 306 305 309 316 316 320 323 324 320 326 330 327 318 320 326 334 334 336 339 339 340 340 340 341 341 341 342 343 344 345 344 344 346 347 348 350 352 352 352 352 352 352 352 352 352 351 351 351 350 350 350 349 349 348 347 346 345 344 343 342 343 343 342 344 346 346 346 345 346 345 346 345 345 345 346 346 346 346 346 346 346 346 346
302 301 296 293 293 291 291 290 292 296 297 302 305 306 307 305 308 309 321 318 319 319 324 331 330 328 322 323 324 327 330 337 340 340 341 340 341 340 340 340 341 343 344 344 343 344 344 346 347 348 350 349 349 350 352 352 352 351 351 351 351 350 350 350 349 348 348 347 347 346 345 344 343 342 342 342 342 342 345 345 344 344 343 345 345 345 344 345 345 346 345 345 344 345 345 345 345
305 300 299 294 292 293 292 292 294 296 297 301 305 304 305 309 308 308 319 318 320 329 332 335 332 325 317 321 319 325 331 338 340 341 340 340 340 339 339 340 341 342 342 342 343 343 343 344 346 348 349 347 348 348 349 351 352 351 351 350 350 350 350 349 348 347 348 347 346 345 344 344 343 342 341 342 342 341 341 343 344 343 343 343 344 344 343 344 345 345 345 344 344 344 345 345 345
302 300 298 295 292 292 292 294 293 296 298 301 305 305 304 307 308 308 308 322 325 332 333 327 334 322 325 325 325 330 337 339 340 341 339 338 338 338 338 338 339 340 341 342 341 341 342 345 346 348 348 348 347 347 347 348 350 350 350 350 349 349 349 348 347 345 344 345 345 345 344 343 342 340 342 340 341 341 341 342 342 342 343 343 344 343 344 345 344 344 344 344 344 345 346 346 346
301 301 294 293 292 292 293 294 295 296 301 301 305 306 304 304 308 310 316 333 327 328 329 326 330 330 328 328 330 335 339 340 341 338 337 335 334 334 334 335 336 337 340 341 340 340 342 345 346 347 348 348 347 347 347 346 349 350 349 349 349 349 347 345 345 345 344 344 343 343 343 340 333 333 337 335 341 338 341 341 341 342 342 343 343 344 344 344 344 343 343 344 344 345 345 346 344
300 295 293 292 293 294 295 296 297 300 301 303 304 305 305 303 306 308 322 327 328 328 326 330 331 331 332 333 335 339 339 338 337 335 334 332 332 331 331 333 334 334 337 338 339 340 342 345 346 346 347 347 347 347 347 346 347 348 346 346 346 344 344 344 342 337 343 335 343 340 334 338 331 329 331 342 337 338 338 341 341 342 342 343 343 344 344 343 343 343 344 344 345 345 346 333 335
296 291 293 293 295 296 299 300 300 300 302 304 305 305 304 304 306 307 313 321 321 320 325 327 324 327 329 331 334 337 337 336 335 334 332 331 331 330 330 331 331 334 335 337 337 340 343 344 345 345 346 347 346 347 347 346 345 344 344 344 344 344 344 342 335 339 332 331 333 333 336 332 329 330 332 338 339 343 339 341 342 343 343 343 343 343 343 343 343 344 345 346 345 346 337 330 330
296 294 293 295 297 298 299 301 301 303 304 306 304 304 303 304 308 308 307 321 319 316 316 323 322 323 326 328 333 335 335 334 334 333 332 331 331 330 329 329 330 332 334 335 336 340 343 343 344 344 345 346 346 346 346 346 344 343 342 341 339 337 335 336 331 331 331 331 334 332 332 332 331 328 342 342 343 336 336 342 342 343 343 343 343 343 345 345 344 344 342 343 343 338 332 331 333
295 295 294 295 297 298 299 300 302 303 304 305 304 304 303 304 306 307 314 317 322 321 325 321 322 324 325 327 331 333 333 332 332 332 331 331 330 331 330 330 330 332 333 335 337 338 342 343 344 344 345 346 345 345 345 344 343 342 341 339 336 334 332 331 330 330 331 332 332 333 332 333 331 329 330 332 333 330 330 330 332 333 332 329 341 329 329 330 332 330 330 334 330 332 332 331 331
295 295 299 296 298 298 300 301 302 302 302 303 304 303 302 305 305 306 306 307 309 321 325 327 326 326 326 326 329 331 331 330 331 331 330 330 329 329 330 330 331 332 333 333 335 337 341 343 344 344 345 345 345 344 344 345 343 340 338 338 336 332 333 330 330 332 332 332 332 333 335 334 331 331 328 330 330 329 329 328 329 328 328 330 336 330 327 327 329 331 331 333 332 331 331 331 332
293 294 294 297 296 298 300 301 301 302 302 301 302 304 306 305 304 304 305 304 305 318 326 328 329 329 329 329 329 329 329 329 329 330 330 329 329 329 329 330 329 329 331 332 335 337 341 342 344 345 344 344 345 345 344 344 342 339 338 338 336 333 330 331 331 331 333 332 333 336 335 333 332 330 330 329 330 331 330 329 329 327 327 328 332 332 330 330 332 333 332 332 330 332 333 333 333
294 294 295 296 298 299 299 302 302 302 303 303 305 307 304 304 301 305 304 306 307 309 321 331 330 330 330 327 328 328 329 329 329 331 331 331 330 330 330 329 330 330 331 331 334 337 340 340 343 344 343 344 344 344 343 342 341 339 338 341 338 336 334 332 331 332 334 334 335 336 339 335 335 331 331 331 332 330 330 330 330 331 331 332 335 336 333 333 334 334 332 332 333 332 334 333 334
295 294 296 296 296 300 300 300 301 302 303 305 304 303 302 304 304 303 302 304 306 307 326 332 330 329 328 328 327 328 328 329 329 330 331 331 332 332 332 331 330 330 329 330 333 335 338 340 342 343 343 343 344 344 342 342 341 338 337 337 337 339 333 332 331 332 333 334 335 337 340 336 335 333 332 333 333 332 331 333 334 334 334 335 337 334 333 331 330 333 333 333 331 330 331 331 334
297 296 296 296 296 297 298 299 299 301 302 304 302 301 303 304 306 304 304 305 306 316 317 331 328 327 327 327 328 328 328 328 329 329 330 331 332 331 330 330 330 329 330 331 332 334 338 340 341 342 343 343 344 343 342 341 340 338 337 337 336 338 333 332 330 331 333 334 334 337 340 338 336 335 334 334 334 332 332 332 334 333 334 334 333 331 332 331 331 331 331 332 331 328 329 332 332
297 295 295 296 296 297 297 298 299 301 302 303 302 301 303 305 303 299 308 308 308 326 325 330 327 326 327 327 328 329 328 328 329 330 331 331 331 331 330 330 330 330 331 330 332 334 338 339 341 342 343 344 344 343 342 341 340 338 337 337 336 335 334 333 331 331 332 334 336 338 339 339 337 335 335 334 334 333 332 332 331 332 332 332 331 332 334 334 332 331 331 331 330 329 329 330 330
297 295 296 296 295 296 296 297 298 300 300 302 302 302 303 305 303 301 304 307 312 325 327 327 327 326 327 327 327 328 329 329 329 330 329 329 330 331 330 330 330 331 331 331 332 334 336 338 340 342 343 343 343 343 342 340 339 338 338 337 336 335 334 331 330 332 336 335 338 338 338 338 338 335 335 334 334 333 332 331 330 330 330 332 333 334 335 333 333 334 333 332 331 329 328 327 324
295 295 292 291 293 294 295 295 297 299 299 302 302 300 299 301 300 305 305 307 318 325 326 326 326 326 327 327 327 328 328 329 329 329 330 331 332 333 331 332 332 331 333 333 333 334 335 338 340 342 343 343 342 342 341 340 339 339 338 337 337 337 333 332 330 332 334 336 338 338 338 337 338 335 334 335 337 332 331 330 329 330 331 333 334 335 334 331 330 330 330 330 330 328 323 321 321
295 295 292 292 292 291 295 297 297 298 299 301 301 291 295 298 302 305 308 309 324 324 325 326 326 326 327 327 327 327 328 329 329 330 331 332 332 333 332 333 334 333 333 333 333 333 335 338 341 342 342 342 342 341 341 339 339 339 339 338 339 337 333 332 333 332 335 337 338 337 337 337 336 335 334 333 334 332 330 329 330 331 331 333 335 334 329 329 329 329 329 330 335 325 321 319 318
290 292 292 287 287 289 295 296 296 295 299 300 302 291 294 298 301 305 306 311 324 323 325 326 326 326 326 327 327 327 328 330 330 330 331 332 333 334 333 333 334 334 334 332 332 333 336 338 341 341 343 342 342 341 341 339 339 339 338 337 337 336 334 332 332 333 335 338 338 336 336 337 336 334 334 334 332 332 330 329 331 332 331 333 333 332 329 327 327 328 328 328 327 324 320 321 316
290 288 286 286 288 290 293 296 297 294 297 299 299 292 294 298 300 304 307 308 323 321 323 325 326 326 326 327 327 327 328 330 331 331 331 332 333 333 333 333 334 334 333 332 332 334 335 337 340 340 341 341 341 341 341 340 339 338 338 341 336 336 335 333 333 334 337 338 338 336 336 338 336 334 334 334 332 331 330 330 332 332 333 332 330 331 331 327 325 327 327 328 323 319 318 315 315
286 287 285 287 287 289 290 293 296 298 297 297 298 292 295 296 300 302 307 307 317 320 323 324 325 325 326 327 327 328 328 329 330 331 331 332 333 334 334 333 334 334 334 332 332 333 335 337 340 339 340 341 341 341 341 339 339 338 337 337 336 335 334 333 334 335 337 338 337 336 336 339 336 335 335 334 332 331 330 331 333 332 332 331 329 329 330 328 326 328 325 326 323 318 315 313 313
283 287 285 287 287 289 287 293 294 295 297 294 296 295 295 293 298 300 303 307 310 316 321 323 324 325 326 327 328 328 328 328 329 331 332 332 333 334 335 335 334 334 334 333 332 333 335 337 339 339 340 341 341 341 340 339 338 338 337 336 336 334 333 333 335 336 337 337 337 336 337 340 337 335 335 333 332 332 331 331 332 331 331 329 329 329 328 327 325 324 323 323 320 317 313 312 311
283 283 283 285 287 287 287 288 291 294 294 294 294 294 295 295 295 299 303 305 305 306 317 323 323 325 326 326 327 327 328 328 329 332 333 333 333 334 335 334 333 333 333 332 332 333 335 337 338 339 340 340 340 340 340 338 337 337 336 334 333 333 332 332 335 336 336 336 337 337 338 338 338 335 335 334 332 333 331 331 330 331 332 330 328 327 325 326 326 323 324 322 320 317 314 312 311
285 286 285 285 284 285 286 289 293 293 292 292 293 292 294 296 296 296 299 303 304 304 310 318 322 324 325 325 326 327 327 328 331 333 334 335 334 334 334 333 333 333 332 331 331 332 334 336 337 338 339 340 340 339 339 337 335 335 333 331 331 332 330 333 335 336 335 336 337 338 338 337 337 336 336 335 333 333 331 331 331 333 332 328 325 326 324 325 324 323 322 320 318 318 316 313 313
287 286 286 284 285 286 289 291 292 293 291 291 293 294 295 295 296 298 298 298 300 302 306 315 320 322 324 325 326 327 328 328 332 333 334 335 334 334 333 332 332 331 331 330 330 330 333 335 336 335 337 338 338 337 337 335 333 333 333 332 331 330 331 332 335 334 335 336 337 338 337 336 335 335 336 335 333 335 332 331 331 330 328 326 325 325 325 324 324 323 323 320 316 314 313 313 312
286 285 284 284 285 284 289 290 293 295 291 288 292 293 294 295 296 298 299 298 298 300 305 309 315 320 323 325 326 327 328 331 332 331 332 333 333 333 332 332 331 329 330 330 329 329 332 335 335 336 337 337 338 337 337 336 335 334 333 331 330 329 331 333 332 333 334 336 337 337 336 335 334 334 335 334 333 332 330 329 329 328 325 324 324 324 323 329 324 322 321 317 317 314 312 313 313
285 284 284 283 284 287 289 291 293 294 292 287 289 290 293 295 296 296 297 298 299 300 307 310 312 314 319 324 325 326 328 328 329 329 331 333 333 333 331 331 331 330 330 330 330 329 331 334 335 336 336 336 337 337 337 335 334 334 333 331 331 329 331 334 334 335 335 335 335 335 335 334 333 332 333 333 332 330 329 327 326 326 325 327 324 323 323 322 322 321 320 318 315 315 314 315 313
283 283 281 281 285 284 281 286 289 291 292 287 289 288 291 295 296 297 297 298 299 300 303 310 316 316 319 323 326 326 327 327 327 328 329 331 332 332 330 330 330 330 329 329 329 328 330 334 335 335 336 336 337 337 337 336 335 334 333 333 333 333 331 333 331 333 333 333 333 333 333 332 331 331 332 332 331 330 327 326 324 324 324 325 323 322 320 320 319 319 319 319 317 314 312 314 316
283 284 283 282 283 284 285 285 289 291 291 291 289 287 288 290 291 294 297 297 298 300 300 302 312 318 321 325 327 328 327 327 327 328 329 330 330 330 330 331 330 328 329 329 329 329 330 332 334 335 336 336 337 337 336 335 335 333 332 331 333 332 333 333 331 330 332 334 333 332 331 331 331 330 330 331 330 327 325 324 323 323 322 320 322 321 321 321 319 320 320 319 317 316 312 311 315
281 284 284 285 285 285 285 287 286 283 283 289 289 281 284 289 290 293 296 295 296 298 298 298 302 307 314 319 324 327 329 329 329 328 330 331 331 331 330 330 329 329 329 330 330 330 330 332 334 335 336 336 336 336 336 335 334 332 330 330 329 329 330 330 330 330 330 332 333 333 331 330 330 329 329 328 328 326 324 323 322 321 321 320 321 320 319 317 317 318 319 320 317 316 316 311 311
279 280 286 286 286 286 285 284 284 278 278 286 289 280 279 284 288 290 293 295 295 297 297 297 299 302 305 313 322 326 327 328 329 330 331 331 331 330 330 330 330 329 329 330 330 330 331 332 334 335 335 336 336 336 336 336 333 332 331 331 331 330 330 331 330 332 332 332 332 331 329 328 329 329 327 325 324 325 323 322 321 321 321 320 322 317 317 317 316 315 317 317 318 318 315 313 312
279 285 286 286 285 285 285 285 284 281 285 287 287 285 278 277 283 289 292 292 294 295 296 297 298 300 302 307 316 324 327 328 329 329 330 331 331 331 330 330 331 331 331 330 330 330 330 332 333 334 335 336 336 336 335 336 333 332 331 331 331 331 331 330 329 329 330 329 329 328 327 326 327 327 325 323 324 324 322 320 320 320 320 319 319 316 315 314 315 314 314 314 316 317 315 315 311
282 286 287 286 286 286 286 285 283 283 282 280 284 286 280 277 283 290 290 290 291 293 295 297 298 299 301 304 311 320 326 329 329 329 330 331 331 331 331 331 332 332 331 330 330 330 331 332 334 334 334 335 336 336 335 335 335 333 332 331 330 331 331 330 329 329 328 328 327 325 325 325 324 324 324 323 322 322 324 320 319 318 318 318 319 315 313 313 312 311 311 311 313 312 314 314 312
286 288 288 288 288 287 286 283 283 283 280 277 281 284 278 278 283 287 288 289 291 293 295 296 298 299 300 302 308 318 325 328 330 331 331 331 332 332 333 333 332 332 332 331 330 330 331 332 333 333 333 335 336 335 335 335 334 333 332 331 330 329 330 328 328 327 326 325 326 324 323 323 322 322 322 322 321 321 321 320 318 317 316 317 317 313 312 310 309 309 309 310 309 309 308 311 312
287 285 284 285 285 284 285 284 282 281 276 279 284 284 281 276 281 285 286 287 292 295 296 298 298 298 299 301 306 315 323 328 329 330 331 332 333 333 333 332 332 332 331 331 330 329 331 332 333 333 333 335 335 335 335 334 334 333 332 331 330 329 328 327 326 325 324 323 324 322 321 321 321 321 320 320 319 317 317 319 316 315 315 319 315 312 311 310 309 308 308 308 308 307 306 307 307
285 282 281 281 280 283 281 281 282 274 274 282 285 284 284 276 278 285 290 292 293 295 295 297 298 297 298 299 304 312 322 327 329 330 330 331 331 332 332 331 331 331 331 330 329 329 330 332 333 332 333 334 335 335 335 334 334 333 332 331 330 330 329 328 327 325 324 324 325 323 321 320 319 319 318 316 314 313 316 315 316 315 315 312 311 310 310 309 309 308 307 306 305 304 305 307 304
282 280 280 276 272 276 271 277 272 272 274 281 285 285 281 280 283 286 289 292 293 293 294 297 298 297 297 299 302 308 319 327 329 330 330 330 330 330 330 331 331 330 330 330 329 329 330 331 332 332 332 334 334 335 334 334 333 332 332 331 331 330 330 329 328 326 325 325 324 323 320 319 318 317 316 315 312 313 314 313 312 312 311 311 310 309 308 309 308 307 307 305 304 304 303 303 302
280 278 276 274 271 270 267 271 275 276 280 285 284 286 280 284 286 290 290 293 295 295 295 295 297 298 297 299 303 306 315 325 329 330 330 330 330 330 331 331 331 331 330 330 330 329 330 331 332 332 332 333 334 334 334 334 333 333 332 331 331 330 330 329 328 327 326 325 324 323 322 320 318 317 315 314 312 313 313 313 313 310 310 310 309 309 308 308 307 306 305 304 303 302 302 301 301
278 281 279 276 276 274 267 273 269 272 276 280 286 282 276 280 281 291 292 294 296 297 297 297 297 298 299 299 303 307 313 321 328 329 329 330 330 331 331 331 331 331 331 330 330 329 330 330 331 331 331 333 334 334 334 333 333 332 332 331 331 330 330 329 328 328 326 325 324 323 322 319 318 316 315 313 313 311 311 311 310 309 308 309 309 309 309 307 307 307 305 304 303 302 302 302 301
282 282 284 278 276 280 274 275 276 276 275 276 279 278 282 286 289 292 293 294 295 296 296 297 297 298 299 299 300 307 312 319 326 329 329 330 330 331 331 331 331 331 331 331 330 330 330 330 331 331 332 332 333 334 334 334 333 332 331 330 330 330 330 329 328 327 326 325 324 324 321 319 317 315 313 313 312 310 309 309 310 308 308 308 308 308 307 307 305 305 303 303 303 304 301 301 300
279 281 275 280 285 282 276 277 280 278 275 272 277 283 285 289 290 291 293 293 293 293 294 295 296 297 298 298 299 303 312 318 324 327 329 329 330 330 331 331 331 331 331 331 331 331 330 330 330 331 332 332 333 333 333 333 333 331 330 330 330 330 329 328 328 326 325 325 324 324 321 318 316 315 314 313 311 309 309 309 308 307 307 307 307 307 307 305 305 305 302 302 301 301 302 300 299
281 277 279 286 288 286 281 272 275 274 271 271 279 278 280 283 278 289 290 291 293 295 295 294 295 296 296 298 299 301 307 316 323 326 329 330 330 330 331 331 332 331 331 331 331 331 331 331 331 331 331 331 332 333 333 333 332 331 330 330 330 330 329 329 328 326 325 324 323 322 319 317 316 315 314 313 310 308 308 311 306 306 306 306 306 306 305 304 304 302 302 301 300 301 300 300 300
283 281 291 282 274 276 280 278 271 271 271 272 278 280 280 283 283 286 289 290 291 293 294 294 293 294 295 297 299 299 304 313 320 324 327 328 329 329 330 331 332 332 332 332 332 332 332 332 332 332 331 332 333 333 333 333 333 332 331 330 330 329 329 328 328 327 325 323 322 321 319 318 316 315 314 312 309 308 307 306 306 305 305 305 305 305 304 303 303 302 301 300 300 300 300 298 298
286 287 283 288 285 282 278 276 280 279 273 273 272 278 276 284 283 285 288 290 292 293 294 293 293 294 295 297 299 300 300 308 316 322 325 327 328 329 330 330 331 331 331 332 332 332 332 332 332 332 332 333 332 332 332 331 332 332 331 330 330 329 329 328 327 326 324 324 323 321 319 317 316 316 313 311 309 308 307 305 305 305 305 304 304 304 304 303 302 302 301 300 300 299 299 299 298
281 281 280 284 284 286 285 284 280 277 274 273 272 273 278 284 287 288 290 290 292 293 293 294 294 294 295 296 298 300 300 304 313 320 324 326 328 329 330 331 331 332 332 332 332 332 332 332 332 332 332 332 332 332 332 332 332 332 331 330 329 329 328 328 327 326 325 323 322 321 320 319 317 315 312 310 309 308 306 306 305 306 304 304 303 303 303 302 302 301 300 300 299 299 299 298 300
281 280 279 281 281 279 276 275 284 283 279 275 274 273 281 288 294 292 291 292 292 294 293 295 296 296 295 296 297 299 300 302 311 318 323 325 327 328 330 330 331 331 332 332 332 332 332 332 332 332 333 332 332 332 332 332 332 332 331 330 329 329 329 328 326 325 324 323 321 321 320 319 317 314 312 311 309 308 307 306 305 304 304 304 303 303 302 302 302 300 299 300 299 299 299 298 298
Wind_Speed
3 3 3 4 2 3 1 2 0 1 2 1 2 0 1 1 4 4 3 3 3 1 1 5 4 4 4 8 10 7 7 5 5 5 5 1 0 6 7 12 13 11 10 9 8 9 11 13 15 16 17 16 17 17 17 16 16 16 17 17 16 15 15 14 14 13 13 12 12 11 11 11 11 11 12 13 11 10 9 12 11 12 12 11 11 11 11 10 10 10 10 10 11 11 11 11 11
0 3 2 2 2 1 2 1 2 2 4 2 4 1 4 1 7 11 13 7 1 3 2 6 8 13 14 13 11 6 2 7 4 2 1 2 5 3 8 12 14 15 10 8 8 7 8 10 15 15 17 17 16 17 17 16 16 16 16 16 16 15 15 14 13 13 12 12 11 11 11 10 11 11 10 10 10 9 8 11 13 12 11 11 11 11 10 10 10 10 10 10 10 11 11 11 10
1 5 5 1 2 1 0 1 1 1 2 3 5 3 2 4 8 11 9 5 7 9 7 10 10 8 9 9 6 8 4 4 3 3 2 6 8 4 9 11 11 13 12 8 7 7 7 9 16 15 16 16 17 17 17 16 16 16 16 16 16 15 15 14 13 13 12 11 11 10 10 10 10 9 8 6 4 2 3 11 13 13 11 11 10 10 9 9 9 9 9 9 10 10 11 10 9
3 2 8 4 1 2 2 2 3 2 1 4 5 4 0 0 5 6 0 8 10 12 7 5 5 3 8 4 7 3 1 3 5 9 3 8 5 8 9 11 10 10 8 8 8 7 6 11 16 15 15 16 17 17 17 16 15 15 16 16 16 15 14 14 13 12 11 11 11 10 10 10 10 8 7 6 4 2 4 9 11 12 11 10 9 9 8 8 8 8 9 9 10 10 10 10 9
4 3 2 2 4 0 2 1 2 2 1 2 3 4 2 2 5 7 2 3 8 5 3 4 5 1 1 4 3 3 6 1 3 6 4 2 8 9 11 11 11 10 9 8 8 8 8 16 15 14 16 16 16 16 16 16 15 15 15 15 16 15 14 14 13 12 11 11 11 10 9 9 9 8 7 7 5 3 3 6 9 11 10 9 9 8 8 7 7 7 8 9 9 10 9 9 10
5 5 2 2 1 1 2 0 1 3 6 3 2 5 1 3 2 10 8 3 6 4 2 1 4 4 1 1 2 4 8 5 4 6 6 6 12 11 12 11 10 9 8 8 7 6 8 17 16 14 14 16 16 16 16 16 15 15 15 15 16 15 14 14 14 12 12 11 11 10 8 8 7 7 6 6 6 7 11 14 14 13 11 9 9 8 7 6 6 7 8 9 9 9 9 10 11
4 5 1 1 3 1 4 2 5 4 7 4 3 6 5 3 4 12 9 4 7 3 2 4 9 7 3 1 2 1 4 10 7 4 9 9 13 13 13 11 10 10 8 8 7 7 9 15 14 14 14 16 16 16 16 16 16 15 14 15 15 15 14 14 14 13 12 12 11 11 9 7 6 6 7 6 7 10 11 11 11 11 10 8 7 6 6 6 7 7 8 8 8 8 9 10 11
0 2 3 2 1 1 1 3 5 5 3 6 4 5 5 2 7 3 17 13 5 4 2 5 7 4 2 1 3 3 2 4 8 12 13 12 13 14 13 11 11 10 9 7 7 6 12 15 14 14 15 15 15 16 15 15 15 15 15 14 14 14 14 14 14 13 13 12 11 10 10 8 6 6 7 7 7 9 10 10 11 10 9 8 6 6 6 6 6 7 7 7 8 8 9 11 12
1 1 1 2 2 1 0 6 4 2 3 1 6 1 3 1 3 8 13 6 5 2 9 8 4 8 3 2 2 1 2 6 10 15 15 14 15 14 10 11 12 10 10 8 7 6 8 14 13 14 16 16 16 15 14 15 15 15 14 14 14 13 13 14 14 14 13 12 11 10 10 9 7 6 7 7 7 8 9 9 9 9 8 7 6 6 5 5 6 6 7 7 7 8 10 11 12
1 1 3 2 3 6 2 6 2 5 4 4 5 2 5 3 3 5 9 6 6 9 7 6 4 4 2 4 1 1 3 9 13 13 13 15 15 13 12 11 11 13 11 9 8 7 7 14 14 13 13 15 14 15 14 14 14 14 14 13 13 12 13 13 13 14 13 12 12 10 9 8 7 7 7 8 8 8 8 8 8 8 7 6 6 5 4 4 5 5 6 7 8 9 10 11 11
2 2 2 2 1 4 6 8 9 0 2 3 7 3 5 3 2 3 3 2 2 4 6 4 4 7 4 1 1 2 8 12 15 15 14 14 14 13 11 10 11 12 12 11 8 7 8 9 15 13 14 13 12 12 11 11 11 11 11 11 11 12 12 13 13 14 13 13 12 11 10 8 7 7 8 8 8 9 8 8 8 8 7 6 5 4 3 4 4 5 6 7 8 9 10 11 11
1 0 1 4 5 6 5 5 12 3 2 1 10 1 3 5 3 3 7 7 6 7 2 4 4 7 3 1 1 3 8 8 11 15 15 13 11 11 11 9 10 9 11 11 9 8 7 8 8 13 15 12 12 12 10 11 11 10 10 11 11 12 12 13 13 14 14 13 12 11 10 9 7 7 8 8 8 9 8 8 8 8 7 6 4 3 3 3 4 5 6 7 8 9 10 10 10
1 1 1 1 4 3 3 4 10 2 1 7 10 1 4 5 4 6 7 10 4 3 8 8 0 3 4 2 1 4 7 5 8 14 15 11 10 9 9 10 10 11 10 9 10 8 8 6 7 8 10 14 12 12 11 12 10 10 11 11 12 13 12 12 13 13 13 12 11 10 10 9 9 7 8 8 9 10 9 9 8 8 7 5 3 2 1 2 4 5 6 7 8 9 9 9 10
2 4 3 4 0 4 6 5 3 7 8 7 5 2 2 4 6 6 9 6 9 14 12 3 1 0 2 4 3 6 6 6 9 11 11 11 9 9 10 9 11 10 10 10 9 8 7 6 5 6 9 8 7 11 13 12 11 11 11 11 12 12 12 12 12 11 10 10 10 10 10 10 9 8 8 8 9 8 10 10 9 8 7 6 3 2 1 2 3 5 6 7 7 8 8 8 9
7 1 1 1 3 2 4 6 7 8 12 4 1 3 2 2 4 7 10 13 8 5 5 10 5 1 4 7 4 10 9 11 11 11 12 11 10 9 10 9 10 9 9 9 8 8 8 6 6 7 7 6 6 5 5 10 14 13 12 13 12 12 11 11 11 11 11 10 10 10 9 10 9 9 8 8 8 8 8 8 8 6 7 4 3 2 0 2 3 4 5 6 7 7 7 7 6
5 5 2 2 7 6 5 5 4 6 13 3 1 2 2 2 3 1 2 7 4 1 14 7 5 4 4 11 8 14 15 14 12 12 12 12 10 8 8 9 8 8 8 9 8 7 7 7 6 7 7 7 5 5 5 6 11 13 13 13 13 12 11 11 11 10 11 11 10 10 10 7 8 6 9 6 9 8 7 3 5 7 6 5 3 2 1 2 3 4 5 6 6 6 6 6 5
1 2 2 5 12 7 4 5 8 14 10 3 1 2 1 2 1 2 1 9 11 8 4 1 9 4 9 7 1 15 17 15 14 15 13 10 9 8 7 7 7 7 6 8 8 8 7 8 8 7 8 8 7 6 5 5 8 12 10 12 13 11 11 11 10 11 10 9 9 10 9 5 3 3 4 3 7 4 6 6 5 5 4 4 3 2 2 2 3 3 4 5 5 5 5 5 5
2 4 6 10 9 10 5 8 7 1 8 7 2 2 0 3 3 1 3 4 4 10 3 1 3 2 5 2 12 12 12 16 17 17 13 12 10 9 8 8 9 11 10 9 7 7 8 8 10 9 8 9 7 6 5 5 5 9 5 5 5 7 8 9 7 3 7 2 9 7 4 3 3 3 1 6 1 3 5 7 7 6 4 3 2 2 2 3 3 3 4 5 6 5 5 2 2
6 3 6 14 8 6 7 5 7 3 11 12 1 2 2 3 4 2 1 3 6 2 3 4 2 5 7 11 13 15 15 14 15 16 19 18 13 14 12 9 9 10 11 9 8 9 8 8 8 9 9 8 8 7 5 5 5 4 4 3 3 6 4 5 2 4 2 3 3 3 3 3 3 2 2 2 1 5 4 7 7 6 5 4 3 3 3 4 4 5 5 6 7 7 3 3 3
6 6 11 12 4 5 7 6 7 8 8 9 8 1 4 2 2 2 3 5 7 10 4 3 3 9 11 11 15 14 12 12 13 14 16 16 15 14 12 12 10 11 12 10 10 8 9 8 9 9 10 9 8 6 6 5 4 4 4 3 3 3 3 2 3 3 3 3 3 3 4 3 3 3 4 9 7 3 3 6 6 6 5 4 4 3 4 3 4 5 6 7 5 3 3 3 3
2 6 11 7 5 6 5 7 9 9 9 10 7 1 0 2 3 0 8 5 4 3 3 7 12 15 16 16 18 16 14 13 11 12 14 13 11 10 13 15 14 12 10 9 8 9 10 9 9 9 9 8 8 7 7 6 4 4 4 4 4 3 3 3 3 2 3 3 3 3 3 3 3 3 2 1 1 2 2 2 1 0 0 1 2 1 2 3 3 4 3 4 3 2 2 2 1
1 11 12 4 8 8 7 10 10 8 6 6 5 6 5 3 3 5 7 7 7 7 6 9 7 7 14 13 14 12 14 13 13 13 15 17 17 14 9 6 4 6 8 9 10 10 10 10 10 9 9 9 8 7 7 6 7 5 5 4 4 2 3 3 3 4 3 3 2 2 3 3 4 4 3 2 1 3 3 3 2 0 0 0 1 2 2 2 3 3 3 3 2 1 0 1 1
9 6 5 7 4 7 5 6 7 9 5 6 4 6 2 2 2 4 6 8 5 9 11 12 14 18 19 19 16 14 14 15 15 15 14 14 14 12 12 10 11 10 10 10 10 9 10 11 10 9 9 8 9 7 6 6 5 5 5 5 5 4 3 3 4 4 4 3 2 3 4 4 4 4 4 3 3 3 4 4 3 2 2 1 1 2 2 2 2 3 2 1 1 1 1 2 2
6 13 5 8 7 10 7 10 9 8 11 10 5 0 5 1 7 2 6 7 9 11 14 10 13 18 16 14 19 22 21 19 18 16 15 17 18 17 15 14 11 9 10 10 10 10 10 12 10 10 9 9 8 8 7 6 5 5 5 6 6 5 5 4 5 5 4 4 3 4 3 4 4 5 4 4 4 3 3 3 2 1 1 2 2 2 1 1 2 2 1 0 0 1 0 1 3
11 13 8 2 6 10 5 5 8 8 10 10 4 6 6 6 6 2 4 5 6 4 7 13 13 16 19 21 18 15 15 14 14 12 8 5 7 10 11 9 11 11 11 11 10 10 11 11 11 12 11 11 8 8 8 6 6 5 5 5 5 6 4 5 5 4 4 4 4 5 4 5 4 4 4 4 3 4 3 3 3 3 3 2 2 1 2 2 0 1 1 2 2 1 1 1 3
10 12 4 4 5 5 7 6 5 6 3 5 5 7 8 8 3 9 8 10 7 4 9 9 9 14 18 20 21 20 18 19 16 13 12 7 7 10 10 11 12 13 14 13 12 11 11 11 12 12 12 11 9 8 7 7 7 6 6 6 5 6 5 5 4 5 5 5 5 5 6 5 5 6 5 4 5 4 3 3 3 2 3 2 2 2 1 1 1 0 1 4 2 1 1 0 2
4 5 4 9 4 4 4 9 9 7 5 6 9 9 9 8 7 7 7 10 10 2 7 14 15 15 17 16 18 20 21 19 19 12 9 9 10 12 12 11 13 13 12 13 12 11 11 12 12 12 11 11 9 9 8 8 7 7 7 6 5 6 6 5 5 5 5 5 5 5 6 6 5 5 5 5 4 4 4 4 3 2 2 2 2 2 1 2 1 1 1 3 2 1 1 1 2
7 4 6 6 5 6 4 6 11 7 8 8 6 10 8 11 5 10 6 9 12 4 7 11 15 17 16 15 15 12 14 16 10 10 16 14 14 14 15 14 14 12 13 14 12 11 12 13 13 12 12 11 10 10 9 8 8 8 7 6 6 6 5 5 6 5 5 5 5 5 6 6 5 5 5 5 5 4 4 3 3 2 2 2 2 2 2 1 2 2 2 2 3 2 2 5 5
5 4 4 4 4 5 6 7 7 8 8 9 7 7 11 7 11 14 9 5 6 6 9 12 13 13 14 12 9 8 11 10 11 11 15 15 11 11 16 14 15 14 11 13 13 13 14 13 13 13 12 11 11 11 10 8 8 7 6 7 6 6 6 5 6 5 5 5 4 5 6 6 5 6 5 5 5 4 4 3 3 2 2 2 2 3 2 2 2 2 2 2 5 4 5 5 5
4 1 2 4 7 7 8 6 6 9 6 9 8 12 12 15 15 17 6 7 6 6 9 11 12 13 13 13 13 14 11 10 11 15 15 12 11 12 15 14 15 12 11 10 11 14 12 10 10 10 12 13 12 10 9 8 8 7 6 6 6 6 6 6 6 5 5 5 5 5 5 5 5 4 5 4 4 4 4 4 3 2 2 3 3 2 3 2 3 3 2 3 5 5 5 3 5
2 3 3 4 3 10 8 10 9 10 5 10 12 13 13 13 16 16 9 8 10 10 10 13 13 12 11 10 12 12 11 16 20 19 15 13 10 10 11 12 14 12 9 10 14 15 13 12 10 9 11 12 12 11 10 9 8 7 6 6 6 6 5 6 6 5 5 6 5 5 5 4 3 4 4 5 4 4 4 3 3 3 3 3 3 2 3 2 3 4 3 5 5 5 5 4 4
1 1 8 2 10 10 5 8 13 15 5 8 12 13 15 13 13 12 11 7 12 12 12 13 12 13 11 10 10 9 11 14 16 15 13 12 11 10 11 13 13 13 13 13 13 13 14 12 11 11 12 13 12 11 9 9 8 7 6 6 6 5 5 6 6 5 6 6 6 5 4 4 4 4 4 4 5 4 4 4 3 3 4 3 3 2 2 3 2 3 1 4 6 5 5 5 4
1 5 3 11 7 10 4 8 8 17 8 7 16 10 12 11 10 8 7 7 11 13 13 13 13 14 12 10 10 10 7 8 7 6 9 10 10 10 11 12 14 15 12 13 14 13 13 13 13 13 14 14 12 11 10 8 8 7 7 6 6 6 6 6 6 5 6 6 6 5 5 4 4 4 5 4 5 4 4 4 3 4 3 3 3 2 2 1 2 3 2 1 5 6 6 5 5
5 2 8 5 9 8 11 1 6 7 15 9 12 13 11 2 7 8 8 9 11 12 13 12 11 10 12 12 12 12 12 9 12 13 14 13 11 13 12 12 13 13 13 14 14 15 15 13 12 13 12 12 11 11 10 8 8 7 6 6 5 6 6 6 6 6 6 6 6 6 5 4 4 4 4 5 4 4 3 3 4 4 4 3 3 3 2 2 1 2 4 3 5 7 5 6 5
8 4 3 6 4 4 4 5 1 6 7 16 9 14 17 8 4 9 12 7 12 13 13 13 13 12 12 11 11 14 14 15 17 17 16 16 15 14 13 12 11 10 8 11 12 13 11 11 11 12 12 12 12 11 10 8 7 6 6 6 6 6 5 5 6 6 6 6 6 5 5 5 5 4 4 5 5 4 4 3 4 4 4 3 3 3 2 3 3 1 5 5 4 4 7 5 7
0 3 1 1 2 4 4 3 6 4 8 13 13 14 18 16 10 7 8 11 12 12 13 13 14 14 14 14 14 14 14 17 18 19 16 15 13 12 12 10 10 9 8 8 11 12 12 12 10 10 11 12 10 10 9 8 7 8 7 5 6 6 5 5 5 6 6 6 6 6 5 5 5 5 5 5 5 5 4 4 4 4 3 4 4 4 4 4 5 4 5 8 7 5 4 5 6
4 4 3 4 4 5 3 6 5 5 4 10 13 18 20 17 17 14 10 7 7 10 14 14 13 13 15 16 16 17 17 18 19 18 14 13 11 7 7 9 9 9 8 9 11 12 13 14 13 13 12 12 11 11 10 10 10 8 7 9 9 6 6 5 6 5 5 5 6 6 6 5 5 5 5 5 5 5 4 4 4 3 4 4 5 5 5 5 4 5 6 5 8 6 3 3 3
2 5 5 7 3 7 3 4 10 10 1 3 8 16 23 18 14 16 12 8 9 10 12 15 16 16 16 19 18 17 17 16 18 10 7 7 8 9 9 10 11 14 14 13 14 14 12 13 14 13 11 13 13 13 11 10 9 10 9 8 5 6 6 6 5 5 5 5 5 6 6 5 5 5 5 5 5 5 5 5 4 5 4 4 4 4 4 5 5 5 6 4 1 6 5 5 6
2 3 5 6 7 4 7 7 8 9 3 7 7 12 18 19 15 11 13 13 10 9 13 16 17 18 16 16 19 18 15 16 14 11 11 12 12 11 10 11 12 14 13 13 10 9 12 14 13 13 12 13 12 12 11 11 8 8 8 6 7 4 2 4 6 5 5 5 5 5 5 6 6 5 5 5 5 4 5 5 5 5 4 4 5 4 4 4 5 7 6 8 5 1 2 4 4
5 3 4 8 4 3 6 3 3 4 0 6 6 8 11 12 13 15 10 11 9 9 11 12 15 18 18 17 17 17 17 17 16 14 13 12 12 12 11 10 12 12 13 12 13 14 12 13 13 14 13 12 12 12 11 9 9 7 6 7 6 6 5 4 3 4 5 5 5 5 4 5 5 5 5 5 4 4 4 5 4 5 5 4 6 6 4 4 4 4 4 6 8 5 3 6 3
4 6 5 6 4 5 7 6 7 9 10 4 8 8 10 7 8 9 10 8 10 12 8 10 11 14 18 18 18 19 20 19 18 16 12 11 11 13 15 16 12 13 14 16 16 15 13 16 15 15 14 14 12 11 11 10 9 7 6 5 5 5 4 5 5 4 5 6 5 5 5 5 5 5 5 5 5 5 4 4 5 5 5 4 5 6 5 6 5 5 6 7 8 8 6 4 4
4 5 8 8 6 6 3 4 6 3 7 4 2 5 15 9 9 14 12 7 11 9 10 10 12 12 12 13 16 18 19 19 21 19 18 18 18 15 14 11 11 13 14 16 16 16 13 13 14 14 12 12 12 13 12 11 11 11 9 9 9 7 8 9 10 10 7 7 7 4 4 5 5 5 5 5 5 5 5 5 4 5 4 5 5 5 5 3 3 4 6 7 6 5 8 5 4
4 6 8 10 9 7 5 4 2 5 7 6 3 8 9 3 5 8 9 11 13 11 12 11 11 13 13 12 14 16 18 15 13 14 16 16 15 16 15 15 16 17 17 15 13 14 14 14 14 15 14 12 12 13 13 12 12 11 13 12 10 10 10 7 5 6 8 6 5 6 5 4 4 6 5 4 5 5 5 4 5 4 4 4 3 5 5 5 5 4 4 5 6 6 4 7 7
6 4 3 5 7 8 9 7 8 6 3 10 2 0 4 7 9 5 7 11 15 15 14 14 11 13 16 15 15 16 16 16 16 15 13 15 19 21 21 20 18 19 18 13 14 14 16 17 15 14 11 12 12 12 14 13 13 11 12 12 10 10 10 9 7 6 5 6 6 6 5 5 4 5 6 5 5 5 5 5 4 4 4 4 4 5 5 4 4 2 2 4 5 6 7 7 6
5 6 6 7 7 8 8 7 7 6 5 11 11 3 6 4 5 8 4 10 12 15 16 17 16 18 20 17 15 14 16 18 17 16 17 17 16 16 18 19 20 20 14 15 17 17 15 13 13 12 13 12 11 14 14 13 13 13 12 10 10 7 8 7 6 6 7 6 7 5 5 5 5 4 4 5 5 5 4 5 4 4 4 4 3 4 3 4 5 5 4 4 5 5 5 5 6
6 7 6 7 6 6 7 7 7 6 6 10 14 5 6 6 4 8 1 6 14 14 15 18 21 22 20 14 10 13 14 15 17 19 19 18 18 18 18 19 18 16 15 14 11 10 12 12 14 15 14 12 12 14 14 14 13 12 12 12 12 8 7 6 7 7 6 6 7 6 4 5 5 5 4 4 4 4 4 4 4 5 5 4 3 5 4 3 3 3 4 4 4 5 3 4 6
8 9 6 7 6 6 4 5 5 3 9 11 15 15 7 8 6 9 9 5 9 14 14 14 14 13 12 10 13 14 14 15 15 16 16 18 19 20 19 19 19 14 8 9 12 13 12 13 15 15 15 12 13 14 14 15 13 12 12 13 13 12 11 10 9 7 7 6 7 7 5 4 4 5 5 4 4 4 4 4 4 4 4 4 5 5 5 5 3 3 3 3 3 5 5 4 3
0 1 2 5 6 2 3 3 3 5 7 9 13 16 10 12 3 7 7 9 8 10 16 18 17 13 12 10 10 12 14 15 16 16 16 15 14 16 16 18 15 13 11 12 12 12 13 14 14 16 14 14 14 15 15 15 13 13 12 12 13 12 13 11 12 11 10 10 10 9 6 7 6 5 4 5 4 4 5 4 4 5 5 5 5 3 3 4 4 3 3 3 3 3 3 4 4
2 3 3 3 3 3 3 3 6 5 8 6 8 12 11 15 10 4 7 12 12 6 5 12 17 14 11 12 13 13 13 14 16 17 16 16 17 17 15 14 11 12 14 17 17 16 15 14 16 17 17 15 16 15 16 16 14 13 12 12 12 11 12 12 12 11 10 10 9 8 7 7 6 6 6 6 5 5 5 6 5 6 5 4 5 4 3 4 4 4 4 3 4 4 5 5 6
5 5 3 3 4 3 4 3 2 4 5 10 8 6 14 4 5 16 18 18 17 16 13 9 9 13 12 12 13 13 14 16 16 16 16 17 17 16 17 17 17 15 16 16 17 16 15 15 17 18 18 15 14 15 16 15 15 13 12 12 11 11 12 12 11 11 10 9 9 10 9 9 9 8 7 7 6 5 4 5 6 5 5 5 5 4 4 4 4 5 4 5 4 3 4 4 6
5 2 4 6 5 3 3 3 5 7 7 5 10 8 3 7 5 15 16 17 18 18 16 13 11 12 11 12 13 15 16 16 16 16 17 17 18 18 17 16 16 16 17 16 14 16 15 15 17 18 16 16 17 17 15 16 14 13 12 12 11 10 11 10 10 10 10 9 7 7 7 6 8 7 8 6 6 6 5 5 5 6 5 5 5 5 4 4 4 4 4 4 4 3 5 6 5
6 3 3 3 5 3 7 3 2 4 4 5 4 6 4 9 3 9 10 11 12 12 10 11 14 13 12 9 11 13 14 16 16 16 17 19 20 19 17 16 16 16 17 15 16 16 16 17 18 19 20 19 17 16 15 15 13 11 11 12 12 12 10 10 9 8 9 10 12 11 9 8 6 7 5 7 6 6 7 6 5 6 5 5 5 5 5 5 4 6 5 5 5 2 6 6 5
3 4 4 8 8 4 3 5 5 2 4 5 3 4 6 7 7 5 9 11 9 8 8 9 12 14 12 12 11 12 14 15 16 17 17 18 16 16 17 18 17 16 15 17 19 19 21 19 17 18 17 15 16 17 16 14 12 12 12 12 11 12 13 13 11 11 11 11 12 10 8 7 7 7 7 6 7 5 6 7 6 6 5 5 5 5 5 5 5 5 6 5 6 4 5 6 5
2 2 7 4 7 8 5 4 3 4 5 5 4 6 4 9 11 4 5 8 10 13 14 11 9 11 13 13 10 11 14 14 17 19 20 21 20 20 19 17 18 19 20 21 21 18 17 16 19 20 18 18 17 16 15 14 14 14 13 13 13 13 12 12 11 12 11 10 9 8 7 7 8 8 8 6 7 7 6 6 7 6 5 5 6 5 5 5 5 5 5 5 4 5 6 4 4
7 7 0 1 1 2 3 4 4 4 5 3 5 6 5 9 8 2 10 10 10 12 14 12 10 8 11 13 12 10 13 14 16 17 16 17 18 18 19 20 20 19 19 19 18 16 14 14 15 17 19 20 18 14 12 11 12 10 11 12 13 12 11 11 10 11 11 11 11 9 10 9 8 8 8 8 7 7 6 6 6 6 5 5 5 5 5 5 5 6 4 6 4 5 6 5 3
5 2 4 2 2 2 2 3 1 2 2 3 6 4 6 4 4 6 7 8 11 11 12 12 11 10 10 11 14 12 12 14 15 16 17 17 18 20 21 21 19 18 16 14 15 14 16 16 15 15 13 11 11 13 13 14 13 12 11 10 11 11 11 11 11 12 11 12 12 11 10 9 10 8 8 8 8 8 7 7 6 7 6 5 5 4 5 5 5 5 6 6 5 5 6 6 4
2 4 3 1 3 2 1 0 2 2 2 2 4 6 5 7 5 3 6 6 9 10 11 10 7 9 10 11 13 14 13 14 15 16 17 18 19 19 20 19 16 14 11 11 13 16 16 14 14 15 17 17 16 15 15 14 13 13 13 14 13 12 13 11 11 12 12 11 10 10 11 10 9 9 9 9 8 8 7 7 7 7 7 7 6 6 4 5 5 5 4 5 5 5 7 5 5
3 4 3 5 3 3 4 7 1 3 2 4 3 7 6 8 3 5 3 3 4 6 6 9 9 10 11 11 14 15 14 11 16 17 18 18 19 21 19 13 10 11 13 16 16 14 13 15 15 15 14 14 15 14 14 14 13 13 14 14 14 12 12 11 12 12 11 11 10 10 10 9 10 9 9 9 9 7 7 8 7 7 7 6 6 6 5 5 6 6 5 4 6 6 6 5 5
Wind_Direction
289 57 123 159 122 120 110 347 68 307 58 274 299 253 255 223 162 105 158 214 153 292 315 46 71 145 135 151 130 129 146 149 201 137 216 263 109 151 127 127 128 128 138 145 151 154 155 153 150 147 145 143 142 140 140 138 137 137 134 129 125 125 124 123 122 120 118 115 116 117 118 119 119 123 134 138 139 145 148 132 130 124 116 113 118 117 111 107 100 92 83 79 76 73 70 67 67
218 111 105 183 144 84 232 128 100 359 40 6 253 79 265 160 141 172 180 183 166 148 147 93 82 78 86 107 108 89 301 199 175 222 51 115 84 91 137 136 139 139 143 147 152 149 151 152 149 148 146 145 145 143 140 139 140 138 134 130 128 128 128 126 124 123 121 118 118 118 122 124 123 124 124 125 137 154 160 135 128 127 120 118 118 116 110 105 96 84 77 73 69 66 64 62 61
152 125 80 134 29 79 103 48 315 54 53 329 279 204 309 172 188 195 167 135 148 135 140 120 105 87 96 103 60 141 236 116 110 113 107 128 142 181 146 142 141 138 143 148 148 149 150 152 151 148 148 148 147 145 142 140 140 140 137 132 130 131 129 127 127 128 124 123 121 122 125 130 126 118 114 121 133 124 186 165 146 113 119 120 118 113 110 100 90 77 73 68 62 59 57 54 52
120 201 138 139 79 1 81 30 102 125 162 222 289 277 121 177 319 13 48 147 139 138 153 138 101 250 117 113 148 140 58 308 163 151 155 185 196 148 142 139 136 134 139 146 148 150 150 154 151 150 149 150 150 147 143 142 143 142 139 135 132 134 133 131 130 130 128 128 126 122 124 129 131 128 117 113 123 148 89 108 123 125 121 120 119 116 106 95 81 70 65 62 57 53 50 47 42
115 120 38 100 120 329 123 187 143 104 252 214 255 264 280 44 310 132 95 150 154 165 167 129 84 316 312 140 143 129 196 126 116 149 134 164 121 145 141 138 137 140 144 146 147 149 156 153 152 151 150 153 151 147 146 145 144 143 141 137 135 137 135 131 131 133 135 131 126 123 124 127 131 130 116 104 111 143 112 94 125 129 122 115 109 98 88 78 66 59 58 54 50 47 43 38 35
81 91 18 53 243 199 46 5 310 175 218 152 283 259 146 6 288 141 139 188 209 278 309 77 152 175 65 199 218 120 148 158 161 156 149 177 142 143 140 140 137 139 143 144 148 154 157 155 152 150 151 153 152 150 148 147 146 144 143 140 138 140 138 134 134 138 138 128 125 127 125 128 126 122 112 102 99 99 102 98 99 108 116 113 108 100 93 82 66 55 50 46 42 39 36 33 30
122 86 12 9 297 66 176 181 225 204 262 164 242 279 57 42 80 127 144 184 256 264 299 138 109 92 64 287 35 108 178 122 117 182 145 154 133 141 142 140 138 138 142 146 149 155 160 150 151 150 152 154 153 152 151 150 148 147 146 143 141 142 139 136 136 143 143 129 129 130 130 127 125 118 118 112 105 111 107 102 107 111 114 114 108 101 95 76 59 47 40 39 33 30 30 31 30
133 129 189 134 233 52 217 221 240 148 274 165 239 272 63 337 121 170 163 176 204 165 99 149 107 94 255 316 156 329 104 123 122 112 122 145 138 142 145 144 139 141 142 146 152 154 157 150 152 150 153 154 155 155 153 151 151 150 148 145 145 144 142 139 142 145 143 134 134 135 136 137 134 130 120 126 120 114 114 111 106 105 107 109 104 93 81 68 53 40 33 30 26 22 26 30 31
77 129 40 79 196 20 42 242 232 216 264 221 266 211 94 50 287 160 191 212 129 144 149 156 133 114 214 75 139 302 3 80 98 121 133 143 143 145 146 148 145 143 143 148 152 158 147 156 151 151 153 154 156 155 155 154 154 153 150 149 148 147 146 144 144 146 141 139 139 137 136 137 143 146 139 131 125 123 119 118 114 114 115 111 104 90 78 65 49 40 28 21 16 16 24 31 32
64 117 258 186 135 212 231 270 243 220 201 220 248 268 98 301 283 131 187 182 186 144 156 131 80 119 153 137 28 315 144 111 110 117 137 143 143 144 146 149 149 144 145 148 155 151 153 155 153 151 153 156 155 155 155 156 156 154 154 153 150 150 150 149 147 146 145 145 144 141 138 138 144 153 154 145 138 129 125 123 122 123 121 111 102 92 75 56 44 33 25 11 6 14 23 32 32
277 353 147 155 179 203 204 257 252 264 265 279 281 129 166 196 291 20 68 72 356 119 148 128 68 141 126 131 197 282 120 133 131 140 145 143 145 147 146 147 147 149 146 150 149 149 159 156 153 153 155 153 152 152 154 155 156 156 155 152 151 152 152 150 150 149 149 148 148 146 143 142 144 157 163 158 151 152 142 139 140 135 130 121 110 89 61 48 33 26 14 5 6 13 23 29 32
290 11 349 224 211 172 215 227 266 224 236 276 275 143 178 105 49 71 53 42 355 3 334 193 182 139 82 91 330 106 133 150 136 137 142 144 145 144 143 142 145 147 147 145 146 152 157 159 154 155 156 151 150 152 153 156 156 156 153 153 154 155 154 154 154 153 153 154 154 154 151 150 157 161 167 165 164 160 152 151 148 143 134 133 113 80 49 31 24 11 5 3 9 16 21 26 29
206 142 80 195 231 175 192 203 259 275 225 232 241 104 143 99 131 135 136 142 163 90 314 314 152 105 131 193 182 121 151 159 137 140 140 143 140 140 140 143 147 146 148 144 145 153 156 155 152 154 152 154 151 152 155 158 156 155 155 155 158 157 159 159 158 159 159 161 161 160 157 159 163 169 174 174 171 161 161 159 155 152 146 138 124 84 55 28 10 4 5 5 10 16 19 22 26
174 179 125 248 151 180 165 209 273 272 244 237 238 114 107 120 147 162 141 140 190 179 186 246 100 353 52 91 149 173 181 161 144 136 133 134 137 139 143 144 146 149 148 149 150 154 155 154 149 145 151 150 157 157 159 157 157 158 159 159 160 160 162 163 164 158 157 161 163 166 163 167 168 172 178 181 180 168 164 159 163 159 160 155 140 150 34 14 6 5 3 7 9 12 16 19 21
181 170 134 173 266 239 229 182 206 245 258 192 252 113 88 139 144 156 157 179 202 87 115 144 178 40 234 167 221 195 173 158 143 136 130 128 131 134 137 143 145 147 148 150 152 154 159 156 146 145 143 149 154 149 159 161 163 164 164 165 165 163 163 167 167 167 162 163 170 172 172 172 174 177 180 187 184 175 171 160 164 177 162 174 160 191 297 354 1 3 0 1 3 9 11 10 12
175 130 141 213 236 206 262 223 170 234 254 153 236 96 87 213 180 121 221 148 156 173 146 162 195 198 201 189 208 168 153 148 142 131 125 124 123 124 132 139 143 148 152 153 156 161 164 156 148 145 147 152 150 145 153 160 167 169 171 171 168 163 166 171 177 176 175 175 178 180 177 176 178 180 184 184 184 180 176 144 199 181 169 182 172 221 287 336 350 357 355 353 351 356 5 360 4
94 118 182 198 242 206 224 210 162 224 251 108 171 60 64 119 330 340 77 131 127 172 189 242 184 155 178 211 5 140 148 141 136 135 130 129 132 136 137 139 143 150 160 160 160 167 168 159 155 148 155 155 150 150 154 157 173 170 175 176 174 170 175 184 184 185 181 183 183 183 181 166 164 168 190 173 189 180 178 186 186 179 169 192 202 241 292 321 334 340 338 333 327 335 346 352 358
118 194 197 224 216 211 189 204 203 178 253 239 129 165 127 302 72 307 71 15 135 149 178 14 7 75 144 47 112 128 135 142 146 142 146 145 150 148 154 159 160 164 164 162 170 168 166 169 162 157 158 159 154 151 155 161 173 170 170 184 181 183 188 189 194 184 188 181 188 187 162 163 149 161 185 188 178 175 186 189 196 196 196 216 235 263 287 297 300 307 313 309 309 321 328 10 354
177 186 189 228 202 223 169 201 221 189 232 250 143 150 147 231 117 240 78 148 119 121 327 10 41 75 95 115 127 137 149 151 156 156 155 157 162 160 160 164 168 162 166 166 168 172 173 167 168 162 163 160 156 155 157 164 170 155 170 171 172 185 194 183 180 183 140 172 169 159 159 154 145 153 183 198 152 172 183 195 200 203 210 221 240 264 274 278 291 303 311 311 308 311 341 354 343
229 177 217 225 181 207 207 191 217 221 233 261 266 208 165 191 120 221 144 152 163 185 191 140 256 144 140 135 136 144 153 161 163 162 163 161 160 160 161 166 171 175 169 170 167 170 175 172 169 167 166 163 162 159 155 165 162 156 160 161 169 164 190 149 176 168 170 170 170 159 159 159 152 153 204 199 198 184 192 207 206 214 217 226 240 275 307 321 314 324 311 304 307 323 339 354 326
237 211 225 212 182 186 234 189 207 218 223 231 239 68 232 209 144 106 145 148 213 208 212 199 198 171 162 153 150 154 160 168 175 172 163 164 164 169 169 173 174 172 171 157 161 174 178 173 168 169 166 163 165 162 164 169 161 163 159 169 173 171 168 156 184 186 183 181 166 167 161 166 154 160 208 275 175 158 193 260 283 272 37 13 343 1 299 303 327 306 312 315 312 327 351 323 303
135 224 229 163 185 211 204 204 206 198 208 208 213 240 240 136 132 155 161 176 214 188 216 230 165 193 143 148 156 156 164 173 180 182 176 170 169 172 168 155 142 153 156 163 170 173 177 176 172 168 165 168 168 166 169 173 168 174 176 179 175 176 172 179 191 205 193 190 168 168 163 164 162 165 185 217 217 170 202 228 226 151 93 257 343 309 291 285 278 273 284 302 326 319 277 281 268
239 256 230 214 189 196 202 205 211 201 194 192 201 214 232 196 173 168 175 212 205 184 210 209 171 168 168 159 151 163 172 183 186 189 182 174 172 169 167 164 161 166 170 175 169 174 174 176 173 167 168 166 169 170 167 173 174 180 181 177 171 188 186 184 200 208 206 192 184 182 175 185 171 171 179 196 203 182 206 214 210 183 191 204 230 234 277 271 269 268 263 296 323 336 18 30 32
231 237 199 212 180 211 185 204 200 213 214 220 210 105 241 341 263 156 187 217 216 202 199 181 183 173 152 151 168 172 182 183 190 191 190 183 174 171 168 167 169 161 164 167 173 174 177 177 173 167 168 169 168 171 171 182 174 182 190 190 192 194 183 203 203 205 202 202 197 199 195 196 178 176 185 184 194 174 209 205 186 181 180 213 217 178 175 234 241 292 303 326 18 18 16 49 61
227 244 225 240 209 220 216 205 201 208 220 226 186 220 221 200 239 318 240 225 239 251 212 187 186 160 164 165 175 176 179 189 191 186 185 205 199 169 165 158 159 163 167 170 173 176 181 176 172 170 172 174 172 171 177 185 181 185 186 185 189 195 191 208 204 198 207 207 204 203 199 195 190 183 186 192 167 189 190 189 194 204 189 180 153 181 156 172 314 337 24 59 56 17 357 348 100
233 243 252 235 222 228 224 236 221 205 216 192 201 214 225 217 188 249 246 264 249 226 184 170 169 171 171 176 175 175 182 190 190 182 184 167 181 175 175 166 165 172 177 171 170 181 179 175 175 174 173 173 174 171 179 186 187 188 196 194 183 193 200 205 201 201 212 204 210 207 208 195 193 185 188 174 175 186 180 170 167 173 161 154 146 169 169 120 159 353 33 68 64 6 3 302 89
359 354 265 251 258 248 220 219 229 224 220 180 207 218 224 226 149 252 239 251 282 143 172 170 168 182 185 182 181 181 182 188 188 174 151 169 179 185 181 175 174 180 171 172 176 177 178 175 177 175 174 174 173 176 179 188 187 196 198 192 176 193 199 196 201 209 207 210 213 206 206 198 187 181 177 170 175 170 170 171 183 159 146 145 151 153 145 139 137 130 99 92 90 71 307 353 58
325 321 314 308 274 246 243 220 224 213 239 221 204 233 227 236 186 228 228 205 236 163 164 171 174 183 192 191 189 193 188 185 165 159 178 173 186 186 182 179 180 177 178 180 179 174 173 179 176 175 175 174 174 179 179 185 194 197 197 186 190 196 189 192 203 204 209 216 211 200 198 195 180 181 171 166 169 168 172 182 179 167 166 134 133 141 126 137 129 110 91 91 89 50 48 50 56
314 323 318 314 306 276 214 220 224 193 228 207 209 261 254 227 235 230 206 210 200 167 166 173 182 186 187 186 184 188 196 174 175 184 193 195 190 187 182 183 177 179 186 178 175 172 177 178 175 177 174 175 177 178 180 186 193 194 194 193 196 191 189 192 202 202 208 216 208 197 196 192 183 173 175 169 170 170 163 166 174 164 154 134 136 137 135 99 93 90 60 84 79 76 72 53 62
300 309 173 304 297 268 229 213 212 197 210 182 149 237 232 233 232 244 197 182 176 166 175 179 182 187 188 182 187 200 191 176 186 198 197 186 186 200 189 183 180 180 177 178 172 179 176 177 176 173 176 177 180 180 178 183 191 191 196 196 196 186 191 190 204 198 193 204 204 199 194 193 181 174 160 158 154 154 156 165 163 150 153 141 134 132 125 130 115 114 110 74 79 85 80 63 76
216 264 154 206 226 238 205 200 192 211 182 179 169 232 232 230 234 241 231 159 171 188 187 184 184 191 192 191 196 195 197 192 193 200 195 182 183 203 203 182 181 179 173 179 181 179 175 177 175 175 175 178 180 181 179 183 187 188 192 198 201 191 188 193 203 187 182 193 195 199 189 186 172 164 157 154 146 149 153 156 157 161 160 139 142 145 136 114 130 129 127 99 87 79 75 62 71
300 179 225 221 217 237 235 215 195 205 203 178 174 227 231 225 227 232 235 169 182 192 191 189 186 189 190 189 197 207 210 214 213 204 188 177 179 194 204 195 184 181 182 181 180 174 177 178 176 173 174 179 183 182 181 182 184 187 191 198 203 198 191 193 199 190 182 182 191 192 183 176 165 164 157 146 144 153 162 167 171 163 158 141 140 132 118 126 121 120 86 132 108 89 90 68 57
336 216 271 225 214 241 268 234 217 209 194 193 189 222 233 237 229 227 229 169 184 195 195 193 187 187 188 190 196 202 218 249 262 237 208 186 188 191 198 195 192 187 179 177 180 176 176 178 176 175 177 179 179 182 181 180 181 185 191 197 200 197 195 198 196 182 176 178 187 188 175 174 163 164 159 149 146 157 161 162 167 173 158 145 135 118 103 156 137 121 75 101 122 120 101 92 68
268 198 227 238 229 221 236 282 233 218 204 213 203 218 229 207 212 219 230 170 179 198 196 194 189 187 187 191 194 191 201 215 231 223 210 200 193 193 195 197 196 188 183 178 180 178 177 177 178 177 176 177 178 179 182 179 182 184 189 196 196 197 197 189 188 171 177 180 180 182 170 166 163 167 156 147 141 154 161 164 160 166 153 132 129 128 173 165 153 119 107 92 120 120 113 113 105
218 220 293 292 295 266 275 225 273 207 222 220 196 222 236 225 240 212 218 188 167 191 195 188 184 190 193 198 201 204 196 196 220 227 214 203 197 192 190 187 190 197 192 182 178 177 173 175 175 177 173 177 178 177 177 176 176 183 186 187 193 201 187 178 175 173 173 174 183 172 164 157 163 165 154 146 145 155 158 171 160 162 149 134 128 138 137 139 121 113 125 101 69 86 128 126 123
165 69 195 257 339 293 256 265 284 186 219 219 207 217 229 223 227 242 228 212 183 190 197 200 190 186 195 201 204 204 202 207 216 217 214 209 202 191 187 177 181 188 187 185 182 176 174 175 177 176 176 175 174 174 173 173 173 182 186 185 195 198 173 170 181 178 164 177 178 165 161 157 162 161 153 151 153 156 166 174 164 159 146 134 133 138 149 149 145 126 128 124 109 88 71 124 126
324 322 301 271 281 283 296 287 290 334 280 227 217 221 229 219 216 221 225 224 220 196 184 199 199 195 197 203 202 201 202 209 217 216 207 208 200 187 178 168 172 180 189 187 186 185 180 177 175 180 177 174 174 176 178 175 178 181 187 190 194 188 172 173 179 173 172 176 169 162 159 161 161 155 153 153 159 165 171 166 157 167 157 146 146 159 161 154 144 139 130 127 130 119 111 146 146
271 275 290 293 274 276 280 291 304 297 358 282 223 229 235 225 212 214 216 209 216 210 172 193 197 201 202 202 206 202 205 213 219 209 185 189 188 185 179 175 169 178 195 189 191 188 181 177 179 178 176 179 180 179 176 178 183 185 181 184 174 166 165 169 180 181 181 171 169 161 161 163 164 159 154 156 157 160 165 169 170 170 160 155 149 139 144 138 131 128 131 98 85 139 153 177 180
293 228 266 276 265 271 276 273 274 287 280 247 259 238 240 234 223 217 208 206 209 203 175 188 196 206 207 204 208 204 201 213 219 206 193 193 189 184 183 184 186 189 184 193 190 179 186 185 183 179 179 180 182 178 175 179 178 175 173 168 168 146 155 176 175 175 165 168 169 162 160 164 161 156 158 160 157 164 173 165 175 165 160 153 124 128 135 139 146 147 153 142 136 61 121 187 191
232 261 256 246 259 256 301 272 305 304 236 314 306 276 260 250 234 228 214 203 214 210 184 192 193 199 204 202 204 206 202 205 208 200 193 190 186 184 185 188 190 182 184 186 188 191 190 190 185 180 181 180 180 182 177 170 166 162 167 157 158 152 162 155 139 142 154 150 164 160 162 164 163 157 162 162 157 160 167 170 161 158 163 162 147 144 157 161 147 146 142 151 144 143 163 200 210
239 222 232 251 247 233 213 276 301 309 296 230 261 285 273 235 231 236 231 216 214 219 205 204 206 208 204 200 201 201 200 201 202 202 194 180 179 188 191 193 182 183 189 191 191 189 191 191 186 181 179 181 179 176 171 157 153 152 135 112 114 92 87 134 138 161 176 174 162 159 169 167 164 156 161 164 158 160 165 161 156 155 152 156 144 148 163 176 179 171 162 156 170 159 180 188 212
272 227 216 234 240 257 237 261 293 350 323 270 181 271 248 231 212 221 220 211 225 224 212 208 218 225 225 208 201 203 207 200 197 197 191 183 185 193 196 183 182 194 196 198 193 191 187 189 186 182 179 179 177 174 166 162 165 161 155 157 167 171 169 170 185 178 164 178 183 161 157 170 161 154 160 156 154 149 162 167 156 150 149 146 146 155 155 142 161 167 182 169 178 186 163 171 190
232 261 201 224 236 240 245 242 221 256 233 278 153 203 264 301 244 224 220 217 219 224 221 217 214 226 225 214 204 203 203 204 210 207 193 184 187 186 190 189 192 196 202 193 186 188 190 190 188 183 180 177 173 172 168 167 167 171 173 178 180 183 180 192 173 165 171 172 155 167 165 165 166 156 155 149 153 157 156 162 159 153 149 144 133 130 149 169 169 179 170 167 180 169 156 174 185
242 238 188 212 218 227 234 226 218 239 251 273 266 17 275 281 291 269 243 208 214 219 222 223 222 224 228 218 208 201 201 198 194 199 205 200 190 187 189 193 196 200 197 180 187 186 188 191 186 183 178 176 175 169 171 174 172 174 178 181 182 185 184 175 170 161 152 151 159 167 158 167 164 157 149 151 157 156 155 156 152 146 136 140 137 147 156 153 134 115 164 176 165 173 178 173 185
227 248 210 231 217 222 228 216 223 227 245 260 275 177 258 244 264 267 218 233 216 216 214 223 223 226 229 221 209 203 197 196 195 197 196 195 203 206 197 194 199 199 182 184 189 188 185 182 182 180 180 175 174 172 173 178 176 177 179 179 182 185 170 162 153 149 151 154 154 156 161 164 158 152 153 154 162 158 163 158 153 144 140 140 128 129 134 150 159 152 141 142 163 180 185 178 162
260 263 247 235 231 232 224 221 218 234 208 248 257 189 236 267 250 280 304 212 224 216 216 217 220 223 228 222 208 203 198 200 200 198 195 197 197 199 201 202 202 196 189 190 181 169 176 178 182 183 182 177 173 175 176 177 178 175 180 183 178 168 157 146 152 153 154 156 160 162 161 160 159 155 160 158 154 164 159 155 154 151 147 141 132 143 135 131 139 149 162 163 159 159 178 165 182
276 308 298 272 253 243 242 218 211 231 237 238 246 244 185 273 215 212 243 215 217 223 223 225 226 232 235 219 200 199 198 198 199 201 202 199 196 197 199 199 202 190 178 174 178 180 177 178 182 184 183 175 173 176 178 181 179 181 183 182 177 167 162 156 154 155 145 155 154 144 141 173 175 168 159 154 154 154 154 154 149 146 143 143 136 143 154 150 153 143 135 125 139 152 152 138 105
200 338 294 302 297 267 261 262 164 213 255 235 232 247 191 234 229 220 236 254 242 228 224 229 234 221 222 213 205 205 198 196 198 197 201 203 203 207 205 205 195 179 172 177 179 180 179 181 181 182 181 179 176 178 181 183 182 184 185 178 176 171 165 167 167 164 168 170 168 167 165 152 165 162 158 146 156 162 148 146 147 139 139 138 147 143 138 137 133 124 117 123 116 104 118 124 134
188 232 277 224 275 171 261 187 226 217 231 238 228 240 251 230 233 245 253 255 261 250 255 235 231 234 219 213 203 196 200 200 198 198 198 197 199 200 201 204 194 183 184 185 183 180 180 180 182 182 185 181 179 178 184 184 183 185 182 179 176 170 172 169 168 167 173 174 169 162 164 167 157 160 176 165 178 168 151 142 147 146 142 144 137 130 135 134 132 124 127 118 126 139 147 142 139
183 202 185 169 216 228 229 236 206 238 243 241 236 235 251 301 232 204 236 247 258 263 255 255 258 235 216 209 205 198 199 198 200 200 198 197 199 202 200 195 191 191 193 189 183 179 181 183 183 185 185 181 178 181 183 184 188 184 180 177 174 172 174 169 169 170 175 171 168 175 177 171 171 175 170 178 171 165 163 164 157 152 145 138 139 139 139 139 129 128 129 129 127 120 108 112 118
176 182 146 177 199 187 212 190 203 213 229 240 217 231 198 198 240 184 209 233 243 249 254 258 247 252 236 207 197 198 196 199 200 200 200 199 199 198 197 197 196 193 190 186 184 186 183 183 184 185 180 183 182 183 183 186 185 183 180 177 173 173 171 170 171 171 168 166 166 174 179 167 169 171 172 164 162 162 158 153 154 146 143 138 134 132 127 117 115 105 106 111 99 109 113 116 118
242 206 229 243 226 241 243 203 174 236 242 260 228 209 193 222 226 189 201 225 233 244 254 249 251 244 243 222 198 196 200 198 197 201 204 204 199 196 196 197 197 194 189 186 186 186 185 187 187 185 183 183 183 181 185 184 183 178 177 177 177 172 169 167 168 167 166 164 173 185 179 173 166 155 156 155 168 159 157 155 152 147 141 138 139 136 135 130 129 122 114 115 111 115 121 114 118
260 132 189 218 215 201 261 283 252 265 357 276 237 243 266 306 302 253 197 212 241 255 245 246 245 244 235 231 216 199 197 197 197 199 201 206 205 200 197 196 197 193 188 188 189 190 190 185 180 184 185 182 184 185 183 180 176 175 181 179 173 174 173 173 171 166 166 170 174 181 175 168 151 154 157 162 157 163 157 154 148 144 142 140 135 136 135 132 131 126 129 124 120 118 112 117 120
261 278 240 269 224 209 195 224 241 229 220 256 255 232 229 208 253 206 243 222 228 244 256 246 238 243 240 230 217 204 199 199 199 199 200 200 199 199 200 201 198 192 190 192 193 190 188 183 182 182 180 182 188 182 180 178 178 179 177 179 179 177 174 171 166 165 165 164 169 164 150 151 166 164 160 162 158 156 156 151 143 143 141 139 141 138 135 132 123 116 123 119 128 124 109 97 110
200 226 282 1 319 282 257 218 237 241 240 250 254 237 236 219 237 172 196 212 231 234 244 256 267 256 247 245 229 199 204 197 197 202 204 203 201 202 202 201 200 196 194 193 190 182 181 185 185 183 184 187 183 178 175 174 176 178 179 181 177 174 171 168 165 162 162 167 168 168 166 164 154 157 157 158 159 157 152 146 143 141 143 141 137 138 134 129 128 123 124 121 120 120 117 116 128
229 240 269 183 135 188 301 223 198 71 268 233 293 254 246 231 222 188 224 207 219 232 246 249 241 246 245 245 247 217 197 199 197 198 199 201 203 203 203 203 197 191 190 185 180 181 185 185 181 182 181 174 171 175 174 177 180 178 177 174 175 173 171 168 165 162 168 173 172 167 163 159 167 162 164 161 161 160 157 150 149 146 146 143 140 137 137 132 127 131 132 125 129 124 122 130 132
169 168 253 166 215 233 144 2 176 158 213 221 239 278 277 265 221 192 239 218 223 226 246 264 265 256 252 248 246 248 218 195 195 195 195 198 204 207 209 203 194 188 178 171 177 185 186 179 181 180 177 179 180 179 176 179 176 179 173 176 175 173 172 166 165 170 170 170 168 167 170 169 155 166 161 164 165 164 158 154 151 154 154 152 145 142 140 137 133 130 125 129 131 133 129 135 129
182 158 194 186 210 212 227 266 337 189 197 219 239 257 263 263 186 200 235 247 250 266 243 261 263 256 241 233 238 232 235 207 197 192 193 196 202 208 207 191 174 167 172 178 182 179 177 182 184 180 177 180 180 179 180 177 179 178 177 175 173 172 168 166 168 170 169 166 166 169 168 161 168 166 166 166 164 161 157 154 154 155 154 151 150 147 148 142 138 133 131 136 138 139 136 138 132